[[{"header":{"parameterUnit":"m.s-1","parameterCategory":1,"la1":30.2991,"la2":30.254,"lo1":-89.0895,"lo2":-89.0444,"dy":0.0017,"dx":0.0017,"nx":28,"ny":28,"refTime":"2025-01-18T03:00:00:Z","depth":0,"parameterNumber":2,"parameterNumberName":"U-component_of_WINDS"},"data":[0,0,0,0,0,0,0,0,0,0,0,0,0,0,0,0,0,0,0,0,0,0,0,0,0,0,0,0,0,0,0,0,0,0,0,0,0,0,0,0,0,0,0,0,0,0,0,0,0,0,0,0,0,0,0,0,0,0,1.9211,1.9211,0,1.9243,1.9244,1.9244,1.924,1.924,1.9239,1.9239,1.9271,1.9273,1.9274,0,0,0,0,0,0,0,0,0,0,0,0,0,1.9145,1.9147,1.9211,1.9211,1.9212,1.9243,1.9244,1.9244,1.9241,1.924,1.9239,1.9239,1.9271,1.9272,1.9274,0,0,0,0,0,0,0,0,0,0,0,0,0,1.9175,1.9147,1.9211,1.9214,1.9214,1.9243,1.9244,1.9244,1.9241,1.924,1.9239,1.9238,1.927,1.9272,1.9274,1.9302,0,0,1.928,1.9281,0,0,0,0,0,0,0,0,1.9174,1.9178,1.9213,1.9213,1.9214,1.9237,1.9233,1.9264,1.9241,1.9231,1.9239,1.9238,1.926,1.9263,1.9271,1.9304,1.9305,1.9281,1.9282,1.9283,1.9283,0,0,0,0,0,0,0,1.9172,1.9176,1.9224,1.9213,1.9214,1.9213,1.9217,1.9238,1.9249,1.9231,1.9231,1.9235,1.9261,1.9269,1.9272,1.9306,1.9281,1.9282,1.9284,1.9284,1.9364,1.9365,0,0,0,0,0,0,1.9169,1.9175,1.9223,1.9225,1.9192,1.9215,1.9219,1.923,1.9249,1.9251,1.9236,1.9235,1.9266,1.9269,1.9273,1.9307,1.9283,1.9285,1.9286,1.9363,1.9364,1.9365,0,0,0,0,0,0,1.9167,1.9173,1.9221,1.92,1.9206,1.9217,1.923,1.9232,1.924,1.9253,1.9254,1.9242,1.9266,1.927,1.9295,1.9308,1.9285,1.9287,1.9362,1.9363,1.9365,1.9376,0,0,0,0,0,0,1.9166,1.9173,1.9183,1.92,1.9207,1.9243,1.9231,1.9233,1.9244,1.9243,1.9259,1.9261,1.9265,1.9292,1.9297,1.9311,1.9289,1.9361,1.9363,1.9364,1.9374,1.9377,1.938,0,0,0,0,0,1.9163,1.9185,1.9184,1.919,1.922,1.9244,1.9248,1.9252,1.9245,1.9255,1.9264,1.9261,1.9306,1.9295,1.93,1.9315,1.936,1.9362,1.9364,1.9373,1.9377,1.938,0,0,0,0,0,0,1.9168,1.9187,1.9186,1.9213,1.9227,1.9243,1.9257,1.9256,1.9272,1.927,1.9275,1.9279,1.9304,1.9312,1.9299,1.9343,1.9332,1.9335,1.9337,1.9341,1.9343,1.9341,1.9291,0,0,0,0,0,1.9173,1.919,1.9206,1.9228,1.9235,1.9245,1.9255,1.9258,1.9272,1.9278,1.9288,1.9302,1.9319,1.933,1.9347,1.9376,1.938,1.9389,1.9391,1.9394,1.9396,1.9412,1.9417,1.9372,1.9372,1.9372,0,0,1.9182,1.9194,1.9205,1.923,1.9241,1.9259,1.925,1.9269,1.9283,1.9281,1.9305,1.9313,1.9329,1.9356,1.9369,1.9363,1.941,1.9396,1.9398,1.9399,1.9415,1.9419,1.9423,1.9373,1.9373,1.9373,0,0,1.9207,1.9219,1.9239,1.9251,1.9268,1.9274,1.9279,1.9296,1.9301,1.9326,1.9325,1.9342,1.9372,1.9383,1.9393,1.9425,1.9423,1.9431,1.9445,1.9461,1.9464,1.9467,1.9479,1.9483,1.9433,1.9433,1.9433,0,1.9216,1.9244,1.9249,1.9269,1.9281,1.9281,1.9302,1.9312,1.9334,1.9342,1.9336,1.9374,1.9385,1.9415,1.9423,1.9431,1.9437,1.9428,1.9463,1.9467,1.947,1.9481,1.9485,1.9434,1.9434,1.9434,1.9434,0,1.9254,1.9273,1.9288,1.9309,1.9322,1.9342,1.9351,1.9364,1.9366,1.9373,1.9399,1.9412,1.9432,1.944,1.9441,1.9471,1.9467,1.9462,1.9451,1.9475,1.9485,1.9489,1.9435,1.9435,1.9435,1.9434,0,0,1.9282,1.9308,1.9313,1.9323,1.9343,1.9358,1.9379,1.9398,1.9409,1.9425,1.9442,1.9469,1.9465,1.9476,1.9479,1.9493,1.9518,1.9487,1.9488,1.9492,1.9552,1.9554,1.9559,1.9518,1.9519,1.9519,1.955,0,1.9309,1.9346,1.9353,1.9385,1.9403,1.9404,1.9422,1.9436,1.9444,1.9461,1.947,1.9488,1.9482,1.9489,1.9503,1.9512,1.953,1.951,1.9534,1.9535,1.9529,1.9565,1.9567,1.9596,1.9554,1.9555,1.9555,0,1.9345,1.9362,1.9397,1.9415,1.9423,1.9439,1.9458,1.9474,1.9491,1.9496,1.9509,1.9511,1.9533,1.9522,1.9553,1.9539,1.955,1.9556,1.9557,1.9559,1.9546,1.9567,1.9605,1.9609,1.9562,1.9561,1.9561,0,1.9362,1.9394,1.9418,1.9427,1.9449,1.9461,1.947,1.9486,1.9498,1.9516,1.9523,1.9543,1.9553,1.9569,1.9576,1.9567,1.9606,1.9596,1.9611,1.9611,1.9618,1.9617,1.9658,1.9626,1.9626,1.9626,1.9626,0,1.9391,1.9412,1.9426,1.9441,1.9465,1.9473,1.9496,1.9506,1.952,1.9537,1.954,1.9556,1.9565,1.9583,1.9589,1.9614,1.9619,1.9623,1.9624,1.9622,1.9622,1.9628,1.9626,1.9627,1.9627,1.9626,1.9626,0,1.9413,1.9424,1.9451,1.947,1.9475,1.9492,1.9508,1.9523,1.9532,1.9554,1.9559,1.9573,1.9594,1.9604,1.9629,1.9634,1.9661,1.9662,1.9656,1.9656,1.9671,1.9669,1.9716,1.9723,1.9687,1.9687,1.9688,0,1.9431,1.9447,1.9468,1.948,1.949,1.951,1.9522,1.9531,1.9544,1.9565,1.9578,1.9599,1.9616,1.965,1.9662,1.9682,1.9683,1.9698,1.9685,1.9683,1.9682,1.9681,1.9683,1.97,1.97,1.97,1.9701,0,1.9461,1.9465,1.9484,1.9504,1.9519,1.9536,1.9552,1.9562,1.9573,1.9588,1.961,1.9623,1.9651,1.9672,1.9693,1.9703,1.9704,1.9705,1.9709,1.9707,1.9703,1.9705,1.9661,1.9703,1.9703,1.9703,1.9703,1.9702,1.9481,1.9495,1.9513,1.9533,1.9547,1.9562,1.9577,1.9589,1.9607,1.963,1.9635,1.9658,1.9675,1.9704,1.9715,1.9734,1.973,1.9736,1.9738,1.9739,1.974,1.9701,1.9738,1.9738,1.9737,1.9737,1.9737,0,1.951,1.9522,1.9541,1.9564,1.958,1.9581,1.9599,1.9613,1.9633,1.965,1.9667,1.9693,1.9714,1.9729,1.975,1.9762,1.9763,1.9767,1.9766,1.9768,1.9742,1.9736,1.9766,1.9766,1.9766,1.9766,1.9766,1.9766,1.9528,1.9553,1.956,1.9592,1.9604,1.9627,1.9637,1.9652,1.9665,1.9694,1.9711,1.9721,1.9737,1.976,1.9779,1.9783,1.9791,1.9795,1.9799,1.9773,1.977,1.9767,1.9761,1.9797,1.9797,1.9823,1.9824,1.9824]},{"header":{"parameterUnit":"m.s-1","parameterCategory":1,"la1":30.2991,"la2":30.254,"lo1":-89.0895,"lo2":-89.0444,"dy":0.0017,"dx":0.0017,"nx":28,"ny":28,"refTime":"2025-01-18T03:00:00:Z","depth":0,"parameterNumber":3,"parameterNumberName":"V-component_of_WINDS"},"data":[0,0,0,0,0,0,0,0,0,0,0,0,0,0,0,0,0,0,0,0,0,0,0,0,0,0,0,0,0,0,0,0,0,0,0,0,0,0,0,0,0,0,0,0,0,0,0,0,0,0,0,0,0,0,0,0,0,0,-7.967,-7.9672,0,-7.9866,-7.9868,-7.987,-7.9783,-7.9779,-7.9774,-7.9769,-7.9964,-7.9974,-7.9983,0,0,0,0,0,0,0,0,0,0,0,0,0,-7.9218,-7.9227,-7.967,-7.9672,-7.9675,-7.9865,-7.9868,-7.9871,-7.9784,-7.9778,-7.9773,-7.9767,-7.9961,-7.9973,-7.9984,0,0,0,0,0,0,0,0,0,0,0,0,0,-7.9414,-7.923,-7.967,-7.9655,-7.9656,-7.9865,-7.9868,-7.9871,-7.9786,-7.9778,-7.9771,-7.9764,-7.9958,-7.9972,-7.9986,-8.0219,0,0,-8.003,-8.0036,0,0,0,0,0,0,0,0,-7.9403,-7.9431,-7.9655,-7.9656,-7.9657,-7.9793,-7.978,-7.9988,-7.9787,-7.9736,-7.9769,-7.9761,-7.9913,-7.9931,-7.9983,-8.0228,-8.0237,-8.0031,-8.004,-8.0046,-8.0051,0,0,0,0,0,0,0,-7.9389,-7.9422,-7.9747,-7.9658,-7.966,-7.9637,-7.9657,-7.9819,-7.9862,-7.974,-7.9734,-7.9759,-7.9912,-7.9969,-7.9987,-8.024,-8.0031,-8.0044,-8.0053,-8.0059,-8.0687,-8.0694,0,0,0,0,0,0,-7.9377,-7.9411,-7.9741,-7.9753,-7.951,-7.9651,-7.9673,-7.9757,-7.986,-7.9869,-7.9765,-7.9754,-7.9948,-7.997,-7.9993,-8.0274,-8.0046,-8.006,-8.0068,-8.0679,-8.0688,-8.0697,0,0,0,0,0,0,-7.9367,-7.9407,-7.9733,-7.9581,-7.962,-7.9667,-7.9761,-7.9764,-7.9821,-7.9879,-7.9886,-7.9815,-7.9943,-7.9973,-8.0164,-8.0279,-8.0066,-8.008,-8.0669,-8.0682,-8.0693,-8.0837,0,0,0,0,0,0,-7.9355,-7.9404,-7.9494,-7.9583,-7.9629,-7.9903,-7.9768,-7.9773,-7.9847,-7.9835,-7.9928,-7.9937,-7.994,-8.0143,-8.0179,-8.0296,-8.0091,-8.0659,-8.0675,-8.0689,-8.0822,-8.0852,-8.0878,0,0,0,0,0,-7.9339,-7.9526,-7.9499,-7.954,-7.9743,-7.9909,-7.9935,-7.9936,-7.9857,-7.9947,-7.9984,-7.9934,-8.0261,-8.0163,-8.0203,-8.0326,-8.0652,-8.067,-8.0688,-8.0809,-8.0846,-8.0878,0,0,0,0,0,0,-7.9447,-7.9537,-7.9509,-7.973,-7.9813,-7.9895,-8.0009,-7.9975,-8.0081,-8.0065,-8.006,-8.0082,-8.028,-8.0322,-8.0211,-8.0557,-8.0444,-8.0471,-8.0523,-8.0559,-8.0586,-8.0572,-8.0103,0,0,0,0,0,-7.9497,-7.9626,-7.9697,-7.9886,-7.9929,-7.9962,-8.0035,-8.0029,-8.0113,-8.0147,-8.0198,-8.0281,-8.0403,-8.0483,-8.0598,-8.0827,-8.0846,-8.0931,-8.0959,-8.0982,-8.1005,-8.113,-8.1169,-8.0756,-8.0756,-8.0756,0,0,-7.9601,-7.9666,-7.9748,-7.991,-7.9973,-8.0106,-7.9992,-8.0137,-8.0235,-8.0169,-8.0353,-8.0394,-8.0486,-8.0698,-8.0793,-8.0738,-8.1123,-8.1005,-8.1023,-8.1034,-8.1153,-8.1192,-8.1226,-8.0768,-8.0766,-8.0764,0,0,-7.9859,-7.9921,-8.0086,-8.0152,-8.025,-8.0271,-8.0311,-8.0398,-8.0423,-8.0608,-8.0561,-8.0677,-8.0886,-8.0954,-8.1016,-8.1301,-8.1258,-8.1338,-8.1485,-8.1606,-8.1639,-8.1668,-8.1769,-8.1806,-8.1361,-8.1361,-8.1361,0,-7.9975,-8.0175,-8.0174,-8.0324,-8.0396,-8.0344,-8.051,-8.0574,-8.0704,-8.0754,-8.0691,-8.0954,-8.1012,-8.1239,-8.1309,-8.136,-8.1405,-8.1327,-8.1635,-8.1663,-8.169,-8.1787,-8.1826,-8.137,-8.1369,-8.1368,-8.1367,0,-8.0314,-8.0453,-8.0574,-8.0703,-8.0789,-8.0946,-8.0967,-8.1054,-8.1041,-8.1068,-8.1257,-8.1325,-8.1454,-8.1507,-8.1494,-8.1733,-8.1696,-8.1634,-8.152,-8.1739,-8.183,-8.1867,-8.1383,-8.138,-8.1377,-8.1375,0,0,-8.0645,-8.0773,-8.0817,-8.0875,-8.098,-8.1087,-8.1241,-8.1368,-8.1443,-8.1534,-8.1663,-8.1842,-8.1786,-8.1856,-8.1851,-8.1958,-8.2179,-8.1883,-8.1885,-8.1936,-8.2447,-8.2493,-8.2536,-8.2152,-8.2159,-8.2164,-8.2439,0,-8.0911,-8.1183,-8.1187,-8.1437,-8.1566,-8.1518,-8.1652,-8.1731,-8.176,-8.1872,-8.1904,-8.2031,-8.1947,-8.199,-8.2093,-8.2131,-8.2282,-8.2111,-8.2271,-8.2276,-8.225,-8.2584,-8.2633,-8.2889,-8.2475,-8.2481,-8.2485,0,-8.1257,-8.1362,-8.1626,-8.1713,-8.1767,-8.1888,-8.2005,-8.2113,-8.22,-8.2214,-8.2294,-8.2273,-8.2428,-8.231,-8.2525,-8.2408,-8.2474,-8.2502,-8.2512,-8.2527,-8.2394,-8.2608,-8.297,-8.3009,-8.2541,-8.2536,-8.2532,0,-8.1473,-8.168,-8.1864,-8.1916,-8.2022,-8.2108,-8.2156,-8.2236,-8.2313,-8.2414,-8.2464,-8.2582,-8.2647,-8.2738,-8.2748,-8.2661,-8.2965,-8.2847,-8.298,-8.298,-8.3046,-8.3042,-8.3424,-8.3088,-8.3087,-8.3086,-8.3086,0,-8.177,-8.1933,-8.1963,-8.2077,-8.2258,-8.226,-8.2439,-8.2479,-8.2552,-8.2671,-8.2636,-8.2749,-8.2756,-8.2871,-8.288,-8.3057,-8.3086,-8.3101,-8.3101,-8.3105,-8.3103,-8.3147,-8.313,-8.3097,-8.3094,-8.3092,-8.3091,0,-8.2042,-8.2068,-8.2267,-8.2351,-8.2376,-8.2506,-8.2578,-8.2686,-8.2712,-8.2864,-8.29,-8.2941,-8.3075,-8.3095,-8.3251,-8.3257,-8.3469,-8.3451,-8.3441,-8.3438,-8.357,-8.3558,-8.3995,-8.4053,-8.3679,-8.3682,-8.3685,0,-8.2229,-8.2354,-8.2453,-8.2532,-8.2585,-8.2711,-8.279,-8.2797,-8.2879,-8.2989,-8.3084,-8.3215,-8.332,-8.3536,-8.3579,-8.3698,-8.3683,-8.3828,-8.37,-8.37,-8.3685,-8.3678,-8.3691,-8.3852,-8.3857,-8.386,-8.3863,0,-8.256,-8.2568,-8.2683,-8.2804,-8.2899,-8.2994,-8.3083,-8.3149,-8.3167,-8.3262,-8.34,-8.3482,-8.3643,-8.3773,-8.3892,-8.3939,-8.3905,-8.3903,-8.394,-8.3944,-8.3934,-8.3942,-8.3508,-8.3892,-8.3889,-8.3887,-8.3886,-8.3884,-8.2796,-8.2905,-8.2992,-8.3122,-8.319,-8.3275,-8.3381,-8.3422,-8.3537,-8.367,-8.3666,-8.3818,-8.3902,-8.4058,-8.4114,-8.4231,-8.4184,-8.4237,-8.4251,-8.4264,-8.4278,-8.3915,-8.4253,-8.4252,-8.4251,-8.425,-8.425,0,-8.3125,-8.3179,-8.3299,-8.3426,-8.3528,-8.3489,-8.3586,-8.3673,-8.3808,-8.389,-8.3995,-8.4153,-8.428,-8.4333,-8.4457,-8.4541,-8.4528,-8.4573,-8.4567,-8.4578,-8.4313,-8.4269,-8.4581,-8.4581,-8.4581,-8.4581,-8.4581,-8.4581,-8.3309,-8.3492,-8.3509,-8.3725,-8.3777,-8.3927,-8.3986,-8.4064,-8.413,-8.4309,-8.4415,-8.4449,-8.452,-8.4648,-8.4762,-8.4774,-8.4822,-8.4874,-8.488,-8.463,-8.4597,-8.4565,-8.4523,-8.4884,-8.4885,-8.5135,-8.5138,-8.5139]}]]